Crane Lake, MN

5:24 AM CDT on April 24, 2017 (GMT -0500)
Crane Lake

Weather History for KCDD - November, 2012

Change the Weather History Date:

Sunday, November 4, 2012

  Actual Average Record
Temperature  
Mean Temperature 22 °F -  
Max Temperature 32 °F 37 °F 62 °F (2016)
Min Temperature 12 °F 25 °F 12 °F (2006)
Degree Days  
Heating Degree Days 43    
Moisture  
Dew Point 22 °F    
Average Humidity 90    
Maximum Humidity 100    
Minimum Humidity 86    
Precipitation  
Precipitation 0.00 in - - ()
Sea Level Pressure  
Sea Level Pressure 30.27 in    
Wind  
Wind Speed 0 mph (NE)    
Max Wind Speed 5 mph    
Max Gust Speed -    
Visibility 10 miles    
Events      
Averages and records for this station are not official NWS values.
T = Trace of Precipitation, MM = Missing Value Source: NWS Daily Summary

Daily Weather History Graph

Daily Weather History Graph

Search for Another Location

Airport or City:

Trip Planner

Search our weather history database for the weather conditions in past years. The results will help you decide how hot, cold, wet, or windy it might be!

Date:

Astronomy

Nov. 04, 2012 Rise Set
Actual Time 7:00 AM CST 4:45 PM CST
Civil Twilight 6:27 AM CST 5:18 PM CST
Nautical Twilight 5:50 AM CST 5:55 PM CST
Astronomical Twilight 5:14 AM CST 6:31 PM CST
Moon 9:19 PM CST (11/4) 11:50 AM CST (11/4)
Length of Visible Light 10h 50m
Length of Day
9h 44m
Waning Gibbous, 72% of the Moon is Illuminated
Nov 4
Waning Gibbous
Nov 6
Last Quarter
Nov 13
New
Nov 20
First Quarter
Nov 28
Full

Hourly Weather History & Observations

Time (CST) Temp. Windchill Dew Point Humidity Pressure Visibility Wind Dir Wind Speed Gust Speed Precip Events Conditions
12:07 AM 17.6 °F - 14.0 °F 86% 30.27 in 10.0 mi Calm Calm - N/A   Clear
12:27 AM 17.6 °F - 14.0 °F 86% 30.26 in 10.0 mi Calm Calm - N/A   Clear
12:47 AM 15.8 °F - 12.2 °F 86% 30.26 in 10.0 mi Calm Calm - N/A   Clear
1:07 AM 15.8 °F - 12.2 °F 86% 30.27 in 10.0 mi Calm Calm - N/A   Clear
1:27 AM 15.8 °F - 12.2 °F 86% 30.27 in 10.0 mi Calm Calm - N/A   Clear
1:07 AM 15.8 °F - 12.2 °F 86% 30.28 in 10.0 mi Calm Calm - N/A   Clear
1:27 AM 15.8 °F - 12.2 °F 86% 30.28 in 10.0 mi Calm Calm - N/A   Clear
1:47 AM 15.8 °F - 12.2 °F 86% 30.28 in 10.0 mi Calm Calm - N/A   Clear
2:07 AM 15.8 °F - 12.2 °F 86% 30.28 in 10.0 mi Calm Calm - N/A   Clear
2:27 AM 14.0 °F - 12.2 °F 93% 30.28 in 10.0 mi Calm Calm - N/A   Clear
2:47 AM 14.0 °F - 12.2 °F 93% 30.28 in 10.0 mi Calm Calm - N/A   Clear
3:07 AM 14.0 °F - 10.4 °F 86% 30.28 in 10.0 mi Calm Calm - N/A   Clear
3:27 AM 14.0 °F - 10.4 °F 86% 30.28 in 10.0 mi Calm Calm - N/A   Clear
3:47 AM 12.2 °F - 10.4 °F 92% 30.28 in 10.0 mi Calm Calm - N/A   Clear
4:07 AM 12.2 °F - 10.4 °F 92% 30.28 in 10.0 mi Calm Calm - N/A   Clear
4:27 AM 12.2 °F - 10.4 °F 92% 30.28 in 10.0 mi Calm Calm - N/A   Clear
4:47 AM 12.2 °F - 10.4 °F 92% 30.28 in 10.0 mi Calm Calm - N/A   Clear
5:07 AM 12.2 °F - 10.4 °F 92% 30.28 in 10.0 mi Calm Calm - N/A   Clear
5:27 AM 14.0 °F - 12.2 °F 93% 30.29 in 10.0 mi Calm Calm - N/A   Mostly Cloudy
5:47 AM 15.8 °F - 14.0 °F 93% 30.29 in 10.0 mi Calm Calm - N/A   Overcast
6:07 AM 17.6 °F - 15.8 °F 93% 30.29 in 10.0 mi Calm Calm - N/A   Overcast
6:27 AM 19.4 °F - 17.6 °F 93% 30.29 in 10.0 mi Calm Calm - N/A   Overcast
6:47 AM 19.4 °F - 17.6 °F 93% 30.29 in 10.0 mi Calm Calm - N/A   Overcast
7:07 AM 21.2 °F - 19.4 °F 93% 30.29 in 10.0 mi Calm Calm - N/A   Overcast
7:27 AM 21.2 °F - 19.4 °F 93% 30.29 in 10.0 mi Calm Calm - N/A   Overcast
7:47 AM 23.0 °F - 21.2 °F 93% 30.29 in 10.0 mi Calm Calm - N/A   Overcast
8:07 AM 23.0 °F - 21.2 °F 93% 30.29 in 10.0 mi Calm Calm - N/A   Overcast
8:27 AM 24.8 °F - 23.0 °F 93% 30.28 in 10.0 mi Calm Calm - N/A   Overcast
8:47 AM 26.6 °F - 24.8 °F 93% 30.28 in 10.0 mi Calm Calm - N/A   Overcast
9:07 AM 26.6 °F - 24.8 °F 93% 30.28 in 10.0 mi Calm Calm - N/A   Overcast
9:27 AM 28.4 °F - 26.6 °F 93% 30.28 in 10.0 mi Calm Calm - N/A   Overcast
9:47 AM 28.4 °F - 26.6 °F 93% 30.28 in 10.0 mi Calm Calm - N/A   Overcast
10:07 AM 28.4 °F - 28.4 °F 100% 30.28 in 10.0 mi Calm Calm - N/A   Overcast
10:27 AM 30.2 °F - 28.4 °F 93% 30.28 in 10.0 mi Calm Calm - N/A   Overcast
10:47 AM 30.2 °F - 28.4 °F 93% 30.28 in 10.0 mi Calm Calm - N/A   Overcast
11:07 AM 30.2 °F - 28.4 °F 93% 30.28 in 10.0 mi Calm Calm - N/A   Overcast
11:27 AM 30.2 °F - 28.4 °F 93% 30.27 in 10.0 mi Calm Calm - N/A   Overcast
11:47 AM 30.2 °F - 28.4 °F 93% 30.27 in 10.0 mi Calm Calm - N/A   Overcast
12:07 PM 30.2 °F - 28.4 °F 93% 30.27 in 10.0 mi Calm Calm - N/A   Overcast
12:27 PM 30.2 °F - 28.4 °F 93% 30.27 in 10.0 mi Calm Calm - N/A   Overcast
12:47 PM 32.0 °F - 30.2 °F 93% 30.26 in 10.0 mi Calm Calm - N/A   Overcast
1:07 PM 32.0 °F - 30.2 °F 93% 30.25 in 10.0 mi Calm Calm - N/A   Overcast
1:27 PM 32.0 °F - 28.4 °F 87% 30.25 in 10.0 mi Calm Calm - N/A   Overcast
1:47 PM 32.0 °F - 28.4 °F 87% 30.25 in 10.0 mi Calm Calm - N/A   Overcast
2:07 PM 32.0 °F - 28.4 °F 87% 30.25 in 10.0 mi Calm Calm - N/A   Overcast
2:27 PM 32.0 °F - 28.4 °F 87% 30.25 in 10.0 mi Calm Calm - N/A   Overcast
2:47 PM 30.2 °F - 28.4 °F 93% 30.25 in 10.0 mi Calm Calm - N/A   Overcast
3:07 PM 30.2 °F - 28.4 °F 93% 30.25 in 10.0 mi Calm Calm - N/A   Overcast
3:27 PM 30.2 °F - 28.4 °F 93% 30.25 in 10.0 mi Calm Calm - N/A   Overcast
3:47 PM 30.2 °F - 26.6 °F 86% 30.26 in 10.0 mi Calm Calm - N/A   Overcast
4:07 PM 30.2 °F - 26.6 °F 86% 30.26 in 10.0 mi Calm Calm - N/A   Overcast
4:27 PM 30.2 °F - 26.6 °F 86% 30.25 in 10.0 mi Calm Calm - N/A   Overcast
4:47 PM 30.2 °F - 26.6 °F 86% 30.25 in 10.0 mi Calm Calm - N/A   Overcast
5:07 PM 30.2 °F - 26.6 °F 86% 30.26 in 10.0 mi Calm Calm - N/A   Overcast
5:27 PM 30.2 °F - 26.6 °F 86% 30.26 in 10.0 mi Calm Calm - N/A   Overcast
5:47 PM 30.2 °F - 26.6 °F 86% 30.27 in 10.0 mi Calm Calm - N/A   Overcast
6:07 PM 30.2 °F - 26.6 °F 86% 30.27 in 10.0 mi Calm Calm - N/A   Overcast
6:27 PM 30.2 °F - 26.6 °F 86% 30.28 in 10.0 mi Calm Calm - N/A   Overcast
6:47 PM 30.2 °F 25.4 °F 26.6 °F 86% 30.28 in 10.0 mi NNE 4.6 mph - N/A   Overcast
7:07 PM 30.2 °F - 26.6 °F 86% 30.28 in 10.0 mi Calm Calm - N/A   Overcast
7:27 PM 30.2 °F - 26.6 °F 86% 30.28 in 10.0 mi Calm Calm - N/A   Overcast
7:47 PM 30.2 °F - 26.6 °F 86% 30.28 in 10.0 mi Calm Calm - N/A   Overcast
8:07 PM 30.2 °F 26.7 °F 26.6 °F 86% 30.28 in 10.0 mi NE 3.5 mph - N/A   Overcast
8:27 PM 30.2 °F - 26.6 °F 86% 30.28 in 10.0 mi Calm Calm - N/A   Overcast
8:47 PM 28.4 °F - 26.6 °F 93% 30.28 in 10.0 mi Calm Calm - N/A   Overcast
9:07 PM 28.4 °F - 26.6 °F 93% 30.28 in 10.0 mi Calm Calm - N/A   Overcast
9:27 PM 28.4 °F - 26.6 °F 93% 30.27 in 10.0 mi Calm Calm - N/A   Overcast
9:47 PM 28.4 °F - 26.6 °F 93% 30.27 in 10.0 mi Calm Calm - N/A   Overcast
10:07 PM 28.4 °F - 26.6 °F 93% 30.28 in 10.0 mi Calm Calm - N/A   Overcast
10:27 PM 28.4 °F - 26.6 °F 93% 30.28 in 10.0 mi Calm Calm - N/A   Overcast
10:47 PM 28.4 °F - 24.8 °F 86% 30.28 in 10.0 mi Calm Calm - N/A   Overcast